星链-31143 (STARLINK-31143 )

导读 | 星芒AI

STARLINK-31143 是 SpaceX Starlink 卫星互联网项目中的一颗低轨道卫星,属于第 6 批次部署的星链卫星之一。该卫星于 2023 年发射,运行在约 550 公里的近地轨道上,旨在为全球用户提供高速互联网服务。它采用先进的通信技术,支持宽带连接,并具备自动避撞功能,以确保太空安全。Starlink 项目致力于构建覆盖全球的卫星网络,尤其服务于偏远地区,提升全球网络接入能力。

基本信息
目录编号:
58770
目录名称:
STARLINK-31143
国际标识:
2024-011F
轨道中心:
EARTH
卫星名称:
星链-31143
卫星全名:
星链-31143 (STARLINK-31143 )
卫星状态:
在轨 (已飞行705 天)
发射日期:
2024-01-14 UTC
国别 :
美国 (US)
星等 :
--
轨道信息
数据来源 国际轨道数据 AOE轨道数据
星历时间 2025-12-18T17:14:44+0800
1天前
查看轨道信息
2025-12-20T01:00:00+0800
4小时前
查看轨道信息
半长轴 6853.36km 6853.362km
偏心率 0.0001136 0.0001318
轨道倾角 53.161° 53.159°
近地点辐角 88.307° 80.817°
升交点赤经 31.225° 25.078°
平近点角 271.806° 11.909°
近地点 474.446km 474.321km
远地点 476.004km 476.129km
周期 94.106分钟 94.106分钟
每日圈数 15.301974 15.301967
详细信息
固有亮度:
5
最大亮度:
0.3
卫星平台:
Starlink v2.0 mini
覆盖范围:
全球
运营商:
太空探索技术公司
运营商所在国:
美国
制造商(研发单位):
太空探索技术公司
制造商所在国:
美国
使用方式:
暂无
卫星简介
星链(Starlink)计划是由太空探索技术公司(SpaceX)提出的一个巨型低轨卫星互联网星座项目,计划在2019年至2024年间在太空搭建由约1.2万颗卫星组成的“星链”网络,其中1584颗将部署在地球上空550千米处的近地轨道,并从2020年开始工作。该卫星仍在工作。
2D轨道图
3D轨道图
轨道高度分析图
轨道倾角分析图
轨道综合分析图
查看轨道综合分析图